Location: Sungai Dangang
(2.7500°N, 113.8333°E)
Time: 05:42:22
(UTC+00:00)

COSMOS 2428 - Pass Details

Date: 16 May 2021
Orbit: 844 x 859 km, 70.9° (Epoch: 16 June)

Event Time Altitude Azimuth Distance (km) Brightness Sun altitude
Exits shadow 19:36:26 29° 94° (E) 1,501 4.3 -37.2°
Drops below altitude 10° 19:40:44 10° 45° (NE) 2,469 5.8 -36.2°
Sets 19:43:28 0° 35° (NE) 3,406 6.6 -35.6°
